Time,TemperatureF,DewpointF,PressureIn,WindDirection,WindDirectionDegrees,WindSpeedMPH,WindSpeedGustMPH,Humidity,HourlyPrecipIn,Conditions,Clouds,dailyrainin,SoftwareType,DateUTC
2013-08-28 00:00:00,64.8,63.5,27.37,NE,37,2.2,2.9,95,0.00,--,--,0.00,awk and wget,2013-08-28 04:00:00,
2013-08-28 00:05:00,64.5,63.2,27.37,NNW,345,4.5,4.5,95,0.00,--,--,0.00,awk and wget,2013-08-28 04:05:00,
2013-08-28 00:10:00,64.5,63.3,27.37,NNE,24,0.6,2.9,95,0.00,--,--,0.00,awk and wget,2013-08-28 04:10:00,
2013-08-28 00:15:00,64.4,63.2,27.36,NNW,344,1.5,2.9,95,0.00,--,--,0.00,awk and wget,2013-08-28 04:15:00,
2013-08-28 00:20:00,64.1,62.8,27.36,NNW,329,4.0,4.0,95,0.00,--,--,0.00,awk and wget,2013-08-28 04:20:00,
2013-08-28 00:30:00,64.3,63.2,27.36,NE,38,0.1,2.9,96,0.00,--,--,0.00,awk and wget,2013-08-28 04:30:00,
2013-08-28 00:35:00,64.3,63.2,27.36,SE,130,2.8,2.9,96,0.00,--,--,0.00,awk and wget,2013-08-28 04:35:00,
2013-08-28 00:40:00,64.4,63.3,27.35,ESE,116,4.0,4.0,96,0.00,--,--,0.00,awk and wget,2013-08-28 04:40:00,
2013-08-28 00:45:00,64.4,63.2,27.35,ESE,118,2.9,2.9,95,0.00,--,--,0.00,awk and wget,2013-08-28 04:45:00,
2013-08-28 00:50:00,64.4,63.1,27.35,ESE,105,4.4,4.4,95,0.00,--,--,0.00,awk and wget,2013-08-28 04:50:00,
2013-08-28 01:00:00,63.9,62.8,27.35,NNW,330,1.8,2.9,96,0.00,--,--,0.00,awk and wget,2013-08-28 05:00:00,
2013-08-28 01:05:00,63.5,62.4,27.35,North,2,2.9,2.9,96,0.00,--,--,0.00,awk and wget,2013-08-28 05:05:00,
2013-08-28 01:10:00,64.0,63.1,27.35,ESE,119,0.9,2.9,96,0.00,--,--,0.00,awk and wget,2013-08-28 05:10:00,
2013-08-28 01:15:00,64.1,63.2,27.35,ENE,73,2.5,2.9,96,0.00,--,--,0.00,awk and wget,2013-08-28 05:15:00,
2013-08-28 01:20:00,64.0,63.0,27.35,ENE,76,2.6,2.9,96,0.00,--,--,0.00,awk and wget,2013-08-28 05:20:00,
2013-08-28 01:25:00,64.1,63.2,27.34,East,101,3.6,3.6,96,0.00,--,--,0.00,awk and wget,2013-08-28 05:25:00,
2013-08-28 01:30:00,64.3,63.3,27.34,North,10,2.6,2.9,96,0.00,--,--,0.00,awk and wget,2013-08-28 05:30:00,
2013-08-28 01:35:00,64.1,63.1,27.34,NE,44,1.3,2.9,96,0.00,--,--,0.00,awk and wget,2013-08-28 05:35:00,
2013-08-28 01:40:00,64.0,63.0,27.34,North,11,2.3,2.9,96,0.00,--,--,0.00,awk and wget,2013-08-28 05:40:00,
2013-08-28 01:45:00,64.6,63.7,27.34,East,86,2.1,2.9,96,0.00,--,--,0.00,awk and wget,2013-08-28 05:45:00,
2013-08-28 01:50:00,64.3,63.4,27.34,ESE,120,1.9,2.9,96,0.00,--,--,0.00,awk and wget,2013-08-28 05:50:00,
2013-08-28 01:55:00,64.0,63.1,27.34,NNE,27,4.7,4.7,96,0.00,--,--,0.00,awk and wget,2013-08-28 05:55:00,
2013-08-28 02:00:00,64.5,63.6,27.34,NE,40,0.6,2.9,96,0.00,--,--,0.00,awk and wget,2013-08-28 06:00:00,
2013-08-28 02:05:00,64.2,63.2,27.34,NNW,328,3.0,3.0,96,0.00,--,--,0.00,awk and wget,2013-08-28 06:05:00,
2013-08-28 02:10:00,64.3,63.3,27.34,ESE,111,3.1,3.1,96,0.00,--,--,0.00,awk and wget,2013-08-28 06:10:00,
2013-08-28 02:15:00,64.4,63.4,27.34,NNE,18,4.7,4.7,96,0.00,--,--,0.00,awk and wget,2013-08-28 06:15:00,
2013-08-28 02:20:00,64.5,63.4,27.34,ESE,104,3.7,3.7,95,0.00,--,--,0.00,awk and wget,2013-08-28 06:20:00,
2013-08-28 02:25:00,64.3,63.1,27.34,East,89,1.2,2.9,95,0.00,--,--,0.00,awk and wget,2013-08-28 06:25:00,
2013-08-28 02:30:00,64.4,63.2,27.34,ESE,118,2.1,2.9,95,0.00,--,--,0.00,awk and wget,2013-08-28 06:30:00,
2013-08-28 02:40:00,64.3,63.2,27.33,ESE,111,0.6,3.0,96,0.00,--,--,0.00,awk and wget,2013-08-28 06:40:00,
2013-08-28 02:45:00,63.9,62.8,27.33,NNW,342,1.5,3.0,96,0.00,--,--,0.00,awk and wget,2013-08-28 06:45:00,
2013-08-28 02:50:00,64.1,63.0,27.33,NNW,345,0.3,3.0,96,0.00,--,--,0.00,awk and wget,2013-08-28 06:50:00,
2013-08-28 03:00:00,64.2,63.2,27.32,North,349,2.2,2.9,96,0.00,--,--,0.00,awk and wget,2013-08-28 07:00:00,
2013-08-28 03:05:00,64.1,63.2,27.32,North,3,1.2,2.9,96,0.00,--,--,0.00,awk and wget,2013-08-28 07:05:00,
2013-08-28 03:10:00,64.2,63.3,27.32,ESE,119,1.7,2.9,96,0.00,--,--,0.00,awk and wget,2013-08-28 07:10:00,
2013-08-28 03:15:00,64.1,63.2,27.32,NNW,329,3.1,3.1,96,0.00,--,--,0.00,awk and wget,2013-08-28 07:15:00,
2013-08-28 03:20:00,64.5,63.6,27.32,North,358,3.2,3.2,96,0.00,--,--,0.00,awk and wget,2013-08-28 07:20:00,
2013-08-28 03:30:00,64.6,63.6,27.32,NNW,332,2.3,2.9,96,0.00,--,--,0.00,awk and wget,2013-08-28 07:30:00,
2013-08-28 03:35:00,64.7,63.7,27.31,North,351,0.8,2.9,96,0.00,--,--,0.00,awk and wget,2013-08-28 07:35:00,
2013-08-28 03:40:00,64.7,63.6,27.31,NE,45,1.9,3.0,96,0.00,--,--,0.00,awk and wget,2013-08-28 07:40:00,
2013-08-28 03:45:00,64.3,63.2,27.32,NE,44,1.1,3.0,96,0.00,--,--,0.00,awk and wget,2013-08-28 07:45:00,
2013-08-28 03:50:00,64.2,63.1,27.32,East,86,0.1,3.0,96,0.00,--,--,0.00,awk and wget,2013-08-28 07:50:00,
2013-08-28 04:00:00,63.8,62.8,27.31,NNW,327,1.9,2.9,96,0.00,--,--,0.00,awk and wget,2013-08-28 08:00:00,
2013-08-28 04:05:00,63.5,62.5,27.31,NNW,327,0.8,2.9,96,0.00,--,--,0.00,awk and wget,2013-08-28 08:05:00,
2013-08-28 04:10:00,63.4,62.5,27.31,NNW,331,1.1,2.9,96,0.00,--,--,0.00,awk and wget,2013-08-28 08:10:00,
2013-08-28 04:15:00,63.6,62.7,27.30,NNW,329,1.8,2.9,97,0.00,--,--,0.00,awk and wget,2013-08-28 08:15:00,
2013-08-28 04:20:00,63.4,62.6,27.31,NNW,328,2.0,2.9,97,0.00,--,--,0.00,awk and wget,2013-08-28 08:20:00,
2013-08-28 04:30:00,63.9,63.1,27.30,NNW,330,2.4,2.9,97,0.00,--,--,0.00,awk and wget,2013-08-28 08:30:00,
2013-08-28 04:35:00,64.4,63.7,27.30,SSE,149,2.6,2.9,97,0.00,--,--,0.00,awk and wget,2013-08-28 08:35:00,
2013-08-28 04:40:00,64.0,63.3,27.30,NE,44,1.1,2.9,97,0.00,--,--,0.00,awk and wget,2013-08-28 08:40:00,
2013-08-28 04:45:00,63.9,63.1,27.30,ESE,115,0.8,2.9,97,0.00,--,--,0.00,awk and wget,2013-08-28 08:45:00,
2013-08-28 04:50:00,63.9,63.1,27.31,NNW,329,1.5,2.9,97,0.00,--,--,0.00,awk and wget,2013-08-28 08:50:00,
2013-08-28 04:55:00,63.7,62.9,27.31,NNE,30,0.4,2.9,97,0.00,--,--,0.00,awk and wget,2013-08-28 08:55:00,
2013-08-28 05:00:00,63.9,63.1,27.31,NNW,327,0.6,2.9,97,0.00,--,--,0.00,awk and wget,2013-08-28 09:00:00,
2013-08-28 05:05:00,63.7,62.9,27.31,NNW,327,0.8,2.9,97,0.00,--,--,0.00,awk and wget,2013-08-28 09:05:00,
2013-08-28 05:10:00,63.8,63.1,27.31,NNE,29,1.0,2.9,97,0.00,--,--,0.00,awk and wget,2013-08-28 09:10:00,
2013-08-28 05:20:00,63.9,63.2,27.30,SSE,153,0.4,2.9,97,0.00,--,--,0.00,awk and wget,2013-08-28 09:20:00,
2013-08-28 05:25:00,63.7,63.0,27.30,NNW,330,0.7,2.9,97,0.00,--,--,0.00,awk and wget,2013-08-28 09:25:00,
2013-08-28 05:30:00,63.5,62.8,27.30,SSE,151,0.8,2.9,97,0.00,--,--,0.00,awk and wget,2013-08-28 09:30:00,
2013-08-28 05:40:00,63.4,62.8,27.30,North,357,0.8,2.9,97,0.00,--,--,0.00,awk and wget,2013-08-28 09:40:00,
2013-08-28 05:45:00,63.4,62.9,27.31,NNW,331,0.9,2.9,98,0.00,--,--,0.00,awk and wget,2013-08-28 09:45:00,
2013-08-28 05:50:00,63.5,63.0,27.30,ENE,73,1.4,2.9,98,0.00,--,--,0.00,awk and wget,2013-08-28 09:50:00,
2013-08-28 06:00:00,63.5,63.0,27.31,North,6,0.7,2.9,98,0.00,--,--,0.00,awk and wget,2013-08-28 10:00:00,
2013-08-28 06:05:00,63.6,63.1,27.31,NNW,327,0.6,2.9,98,0.00,--,--,0.00,awk and wget,2013-08-28 10:05:00,
2013-08-28 06:10:00,63.6,63.2,27.31,SSE,154,0.9,3.0,98,0.00,--,--,0.00,awk and wget,2013-08-28 10:10:00,
2013-08-28 06:15:00,63.7,63.3,27.31,East,85,3.3,3.3,98,0.00,--,--,0.00,awk and wget,2013-08-28 10:15:00,
2013-08-28 06:20:00,63.8,63.4,27.31,ESE,104,3.7,3.7,98,0.00,--,--,0.00,awk and wget,2013-08-28 10:20:00,
2013-08-28 06:25:00,63.6,63.3,27.32,NNW,332,5.0,5.0,98,0.00,--,--,0.00,awk and wget,2013-08-28 10:25:00,
2013-08-28 06:30:00,63.8,63.5,27.32,ENE,77,4.5,4.5,98,0.00,--,--,0.00,awk and wget,2013-08-28 10:30:00,
2013-08-28 06:40:00,63.8,63.6,27.32,ESE,112,3.5,3.5,99,0.00,--,--,0.00,awk and wget,2013-08-28 10:40:00,
2013-08-28 06:45:00,63.9,63.6,27.32,ENE,71,1.9,2.9,99,0.00,--,--,0.00,awk and wget,2013-08-28 10:45:00,
2013-08-28 06:50:00,64.0,63.8,27.32,NNE,26,2.4,2.9,99,0.00,--,--,0.00,awk and wget,2013-08-28 10:50:00,
2013-08-28 06:55:00,64.0,63.8,27.32,NE,42,0.6,2.9,99,0.00,--,--,0.00,awk and wget,2013-08-28 10:55:00,
2013-08-28 07:00:00,64.0,63.8,27.32,NNE,18,1.5,2.9,99,0.00,--,--,0.00,awk and wget,2013-08-28 11:00:00,
2013-08-28 07:05:00,64.0,63.8,27.32,NNW,336,1.5,2.9,99,0.00,--,--,0.00,awk and wget,2013-08-28 11:05:00,
2013-08-28 07:10:00,64.0,63.8,27.31,NNW,331,0.4,2.9,99,0.00,--,--,0.00,awk and wget,2013-08-28 11:10:00,
2013-08-28 07:15:00,64.2,64.0,27.31,NNW,327,1.0,2.9,99,0.00,--,--,0.00,awk and wget,2013-08-28 11:15:00,
2013-08-28 07:20:00,64.3,64.1,27.32,North,355,1.5,2.9,99,0.00,--,--,0.00,awk and wget,2013-08-28 11:20:00,
2013-08-28 07:30:00,64.7,64.6,27.32,NNE,16,4.6,4.6,99,0.00,--,--,0.00,awk and wget,2013-08-28 11:30:00,
2013-08-28 07:35:00,65.1,65.0,27.31,ENE,72,5.2,5.2,99,0.00,--,--,0.00,awk and wget,2013-08-28 11:35:00,
2013-08-28 07:40:00,65.2,65.1,27.33,NNW,347,7.7,7.7,99,0.00,--,--,0.00,awk and wget,2013-08-28 11:40:00,
2013-08-28 07:45:00,65.8,65.8,27.32,ESE,106,0.7,2.9,99,0.00,--,--,0.00,awk and wget,2013-08-28 11:45:00,
2013-08-28 07:50:00,65.9,65.8,27.32,East,87,2.4,2.9,99,0.00,--,--,0.00,awk and wget,2013-08-28 11:50:00,
2013-08-28 07:55:00,66.4,66.3,27.32,NNW,332,2.2,2.9,99,0.00,--,--,0.00,awk and wget,2013-08-28 11:55:00,
2013-08-28 08:00:00,65.7,65.7,27.32,NNW,329,1.0,2.9,99,0.00,--,--,0.00,awk and wget,2013-08-28 12:00:00,
2013-08-28 08:05:00,65.9,65.8,27.32,NNW,331,1.9,2.9,99,0.00,--,--,0.00,awk and wget,2013-08-28 12:05:00,
2013-08-28 08:10:00,65.7,65.7,27.33,NNW,333,2.0,2.9,99,0.00,--,--,0.00,awk and wget,2013-08-28 12:10:00,
2013-08-28 08:15:00,65.7,65.6,27.33,NNW,329,0.3,2.9,99,0.00,--,--,0.00,awk and wget,2013-08-28 12:15:00,
2013-08-28 08:20:00,65.7,65.7,27.33,NNW,329,2.9,2.9,99,0.00,--,--,0.00,awk and wget,2013-08-28 12:20:00,
2013-08-28 08:25:00,65.8,65.7,27.33,NNW,328,3.3,3.3,99,0.00,--,--,0.00,awk and wget,2013-08-28 12:25:00,
2013-08-28 08:30:00,65.8,65.7,27.33,NNW,327,6.1,6.1,99,0.00,--,--,0.00,awk and wget,2013-08-28 12:30:00,
2013-08-28 08:35:00,65.7,65.6,27.33,NNW,329,0.1,2.9,99,0.00,--,--,0.00,awk and wget,2013-08-28 12:35:00,
2013-08-28 08:40:00,66.0,65.9,27.33,ENE,68,0.1,2.9,99,0.00,--,--,0.00,awk and wget,2013-08-28 12:40:00,
2013-08-28 08:45:00,66.0,65.9,27.33,NNW,328,1.7,2.9,99,0.00,--,--,0.00,awk and wget,2013-08-28 12:45:00,
2013-08-28 08:50:00,66.1,66.1,27.33,NNW,328,2.9,2.9,99,0.00,--,--,0.00,awk and wget,2013-08-28 12:50:00,
2013-08-28 09:00:00,66.4,66.4,27.32,NNW,328,5.8,5.8,99,0.00,--,--,0.00,awk and wget,2013-08-28 13:00:00,
2013-08-28 09:05:00,66.6,66.5,27.32,NNW,328,7.6,7.6,99,0.00,--,--,0.00,awk and wget,2013-08-28 13:05:00,
2013-08-28 09:10:00,66.7,66.6,27.32,NNW,327,7.5,7.5,99,0.00,--,--,0.00,awk and wget,2013-08-28 13:10:00,
2013-08-28 09:15:00,66.6,66.6,27.32,NNW,327,7.9,7.9,99,0.00,--,--,0.00,awk and wget,2013-08-28 13:15:00,
2013-08-28 09:20:00,66.7,66.6,27.32,NNW,327,6.5,6.5,99,0.00,--,--,0.00,awk and wget,2013-08-28 13:20:00,
2013-08-28 09:25:00,66.8,66.7,27.32,NNW,327,5.5,5.5,99,0.00,--,--,0.00,awk and wget,2013-08-28 13:25:00,
2013-08-28 09:30:00,67.0,66.9,27.32,NNW,327,9.8,9.8,99,0.00,--,--,0.00,awk and wget,2013-08-28 13:30:00,
2013-08-28 09:35:00,67.0,67.0,27.32,NNW,328,5.3,5.3,99,0.00,--,--,0.00,awk and wget,2013-08-28 13:35:00,
2013-08-28 09:40:00,67.2,67.1,27.32,NNW,327,8.9,8.9,99,0.00,--,--,0.00,awk and wget,2013-08-28 13:40:00,
2013-08-28 09:45:00,67.6,67.5,27.33,NNW,327,6.6,6.6,99,0.00,--,--,0.00,awk and wget,2013-08-28 13:45:00,
2013-08-28 09:50:00,67.9,67.8,27.33,NNW,327,7.2,7.2,99,0.00,--,--,0.00,awk and wget,2013-08-28 13:50:00,
2013-08-28 10:00:00,68.3,68.2,27.32,NNW,331,2.2,2.9,99,0.00,--,--,0.00,awk and wget,2013-08-28 14:00:00,
2013-08-28 10:05:00,68.2,68.1,27.32,NNW,329,0.9,2.9,99,0.00,--,--,0.00,awk and wget,2013-08-28 14:05:00,
2013-08-28 10:10:00,68.2,68.0,27.32,NNW,327,4.0,4.0,99,0.00,--,--,0.00,awk and wget,2013-08-28 14:10:00,
2013-08-28 10:15:00,68.4,68.2,27.32,NNW,327,4.5,4.5,99,0.00,--,--,0.00,awk and wget,2013-08-28 14:15:00,
2013-08-28 10:20:00,68.7,68.4,27.32,NNW,328,2.4,2.9,99,0.00,--,--,0.00,awk and wget,2013-08-28 14:20:00,
2013-08-28 10:30:00,69.4,69.0,27.32,NNW,331,2.9,2.9,98,0.00,--,--,0.00,awk and wget,2013-08-28 14:30:00,
2013-08-28 10:35:00,69.5,69.0,27.32,NNW,327,7.8,7.8,98,0.00,--,--,0.00,awk and wget,2013-08-28 14:35:00,
2013-08-28 10:40:00,69.7,69.1,27.32,NW,326,9.1,9.1,98,0.00,--,--,0.00,awk and wget,2013-08-28 14:40:00,
2013-08-28 10:45:00,69.6,68.9,27.32,NW,326,9.3,9.3,97,0.00,--,--,0.00,awk and wget,2013-08-28 14:45:00,
2013-08-28 10:50:00,69.6,68.7,27.32,NNW,327,6.5,6.5,96,0.00,--,--,0.00,awk and wget,2013-08-28 14:50:00,
2013-08-28 10:55:00,70.2,69.3,27.31,NNW,328,1.9,2.9,96,0.00,--,--,0.00,awk and wget,2013-08-28 14:55:00,
2013-08-28 11:00:00,70.6,69.5,27.31,NNW,329,3.9,3.9,96,0.00,--,--,0.00,awk and wget,2013-08-28 15:00:00,
2013-08-28 11:05:00,71.2,69.8,27.31,NNW,327,0.6,2.9,95,0.00,--,--,0.00,awk and wget,2013-08-28 15:05:00,
2013-08-28 11:10:00,71.6,69.9,27.31,NNW,329,2.1,2.9,94,0.00,--,--,0.00,awk and wget,2013-08-28 15:10:00,
2013-08-28 11:15:00,71.8,69.7,27.30,NNW,329,2.4,2.9,93,0.00,--,--,0.00,awk and wget,2013-08-28 15:15:00,
2013-08-28 11:20:00,72.1,69.6,27.31,NW,326,4.5,4.5,91,0.00,--,--,0.00,awk and wget,2013-08-28 15:20:00,
2013-08-28 11:30:00,73.0,69.6,27.30,NW,326,5.6,5.6,88,0.00,--,--,0.00,awk and wget,2013-08-28 15:30:00,
2013-08-28 11:35:00,73.2,69.0,27.30,NW,326,6.8,6.8,86,0.00,--,--,0.00,awk and wget,2013-08-28 15:35:00,
2013-08-28 11:40:00,73.6,69.6,27.30,NNW,327,3.5,3.5,87,0.00,--,--,0.00,awk and wget,2013-08-28 15:40:00,
2013-08-28 11:45:00,74.0,69.7,27.29,NW,326,7.4,7.4,86,0.00,--,--,0.00,awk and wget,2013-08-28 15:45:00,
2013-08-28 11:50:00,74.9,69.4,27.29,NW,326,6.0,6.0,83,0.00,--,--,0.00,awk and wget,2013-08-28 15:50:00,
2013-08-28 11:55:00,74.4,68.5,27.29,NNW,327,4.8,4.8,81,0.00,--,--,0.00,awk and wget,2013-08-28 15:55:00,
2013-08-28 12:00:00,74.1,67.7,27.29,NW,326,3.2,3.2,80,0.00,--,--,0.00,awk and wget,2013-08-28 16:00:00,
2013-08-28 12:10:00,74.7,68.6,27.29,NNW,327,4.7,4.7,81,0.00,--,--,0.00,awk and wget,2013-08-28 16:10:00,
2013-08-28 12:15:00,74.5,68.2,27.29,NW,326,5.9,5.9,80,0.00,--,--,0.00,awk and wget,2013-08-28 16:15:00,
2013-08-28 12:20:00,74.6,67.8,27.29,NW,325,6.1,6.1,79,0.00,--,--,0.00,awk and wget,2013-08-28 16:20:00,
2013-08-28 12:30:00,75.2,67.2,27.29,NW,325,10.6,10.6,76,0.00,--,--,0.00,awk and wget,2013-08-28 16:30:00,
2013-08-28 12:35:00,75.5,66.4,27.29,NW,325,9.6,9.6,73,0.00,--,--,0.00,awk and wget,2013-08-28 16:35:00,
2013-08-28 12:40:00,75.2,67.2,27.29,NW,324,6.7,6.7,76,0.00,--,--,0.00,awk and wget,2013-08-28 16:40:00,
2013-08-28 12:45:00,75.0,66.5,27.28,NW,326,7.7,7.7,74,0.00,--,--,0.00,awk and wget,2013-08-28 16:45:00,
2013-08-28 12:50:00,75.2,66.6,27.28,NW,325,11.8,11.8,74,0.00,--,--,0.00,awk and wget,2013-08-28 16:50:00,
2013-08-28 12:55:00,75.9,66.7,27.28,NNW,328,12.1,12.1,73,0.00,--,--,0.00,awk and wget,2013-08-28 16:55:00,
2013-08-28 13:00:00,77.5,66.9,27.28,NW,325,12.9,12.9,69,0.00,--,--,0.00,awk and wget,2013-08-28 17:00:00,
2013-08-28 13:05:00,76.8,67.3,27.28,NNW,327,4.9,4.9,72,0.00,--,--,0.00,awk and wget,2013-08-28 17:05:00,
2013-08-28 13:10:00,76.3,66.8,27.28,NW,324,9.7,9.7,72,0.00,--,--,0.00,awk and wget,2013-08-28 17:10:00,
2013-08-28 13:15:00,76.7,67.3,27.28,NW,324,8.8,8.8,72,0.00,--,--,0.00,awk and wget,2013-08-28 17:15:00,
2013-08-28 13:20:00,76.8,65.6,27.27,NW,325,8.0,8.0,68,0.00,--,--,0.00,awk and wget,2013-08-28 17:20:00,
2013-08-28 13:40:00,76.9,66.6,27.27,NW,324,1.8,2.9,70,0.00,--,--,0.00,awk and wget,2013-08-28 17:40:00,
2013-08-28 13:45:00,76.6,66.4,27.27,NNW,338,0.4,2.8,70,0.00,--,--,0.00,awk and wget,2013-08-28 17:45:00,
2013-08-28 13:50:00,76.6,66.4,27.27,SSE,152,3.4,3.4,70,0.00,--,--,0.00,awk and wget,2013-08-28 17:50:00,
2013-08-28 14:00:00,76.8,65.8,27.27,NW,326,7.6,7.6,68,0.00,--,--,0.00,awk and wget,2013-08-28 18:00:00,
2013-08-28 14:10:00,76.9,65.7,27.27,NW,325,4.4,4.4,68,0.00,--,--,0.00,awk and wget,2013-08-28 18:10:00,
2013-08-28 14:15:00,77.6,66.3,27.27,NW,324,7.4,7.4,68,0.00,--,--,0.00,awk and wget,2013-08-28 18:15:00,
2013-08-28 14:20:00,78.5,64.6,27.27,NNW,329,9.6,9.6,62,0.00,--,--,0.00,awk and wget,2013-08-28 18:20:00,
2013-08-28 14:30:00,79.9,65.7,27.26,NW,323,8.3,8.3,61,0.00,--,--,0.00,awk and wget,2013-08-28 18:30:00,
2013-08-28 14:40:00,78.7,65.4,27.26,NW,326,7.6,7.6,63,0.00,--,--,0.00,awk and wget,2013-08-28 18:40:00,
2013-08-28 14:45:00,78.7,64.4,27.26,NW,323,9.3,9.3,61,0.00,--,--,0.00,awk and wget,2013-08-28 18:45:00,
2013-08-28 14:50:00,79.3,64.8,27.26,NNW,327,4.5,4.5,61,0.00,--,--,0.00,awk and wget,2013-08-28 18:50:00,
2013-08-28 14:55:00,80.0,65.5,27.25,NW,326,4.7,4.7,61,0.00,--,--,0.00,awk and wget,2013-08-28 18:55:00,
2013-08-28 15:00:00,79.4,64.8,27.25,NW,323,15.4,15.4,61,0.00,--,--,0.00,awk and wget,2013-08-28 19:00:00,
2013-08-28 15:05:00,78.7,63.3,27.25,NW,325,5.3,5.3,59,0.00,--,--,0.00,awk and wget,2013-08-28 19:05:00,
2013-08-28 15:10:00,77.4,64.7,27.26,NNW,329,11.9,11.9,64,0.00,--,--,0.00,awk and wget,2013-08-28 19:10:00,
2013-08-28 15:15:00,76.6,62.7,27.26,NNW,340,8.1,8.1,62,0.00,--,--,0.00,awk and wget,2013-08-28 19:15:00,
2013-08-28 15:20:00,74.8,63.5,27.26,NNW,329,4.8,4.8,68,0.00,--,--,0.00,awk and wget,2013-08-28 19:20:00,
2013-08-28 15:25:00,73.7,64.9,27.25,NW,323,7.7,7.7,73,0.00,--,--,0.00,awk and wget,2013-08-28 19:25:00,
2013-08-28 15:30:00,74.1,66.1,27.25,NW,325,2.9,2.9,76,0.00,--,--,0.00,awk and wget,2013-08-28 19:30:00,
2013-08-28 15:35:00,74.3,67.1,27.25,NNW,327,2.1,2.8,78,0.00,--,--,0.00,awk and wget,2013-08-28 19:35:00,
2013-08-28 15:40:00,75.2,67.7,27.25,North,3,1.5,2.8,77,0.00,--,--,0.00,awk and wget,2013-08-28 19:40:00,
2013-08-28 15:45:00,75.9,65.3,27.24,NW,326,0.6,2.9,69,0.00,--,--,0.00,awk and wget,2013-08-28 19:45:00,
2013-08-28 15:50:00,77.0,66.8,27.24,NNW,330,4.3,4.3,70,0.00,--,--,0.00,awk and wget,2013-08-28 19:50:00,
2013-08-28 16:00:00,77.2,65.4,27.23,NNW,330,22.1,22.1,66,0.00,--,--,0.00,awk and wget,2013-08-28 20:00:00,
2013-08-28 16:05:00,77.4,66.6,27.24,NW,326,10.2,10.2,69,0.00,--,--,0.00,awk and wget,2013-08-28 20:05:00,
2013-08-28 16:10:00,77.7,66.1,27.23,SE,143,8.2,8.2,67,0.00,--,--,0.00,awk and wget,2013-08-28 20:10:00,
2013-08-28 16:15:00,76.7,65.0,27.24,NW,326,5.7,5.7,67,0.00,--,--,0.00,awk and wget,2013-08-28 20:15:00,
2013-08-28 16:20:00,76.2,65.1,27.24,NW,326,1.8,2.9,68,0.00,--,--,0.00,awk and wget,2013-08-28 20:20:00,
2013-08-28 16:25:00,75.7,65.4,27.24,NNW,328,7.1,7.1,70,0.00,--,--,0.00,awk and wget,2013-08-28 20:25:00,
2013-08-28 16:30:00,75.4,65.7,27.23,ESE,113,5.5,5.5,71,0.00,--,--,0.00,awk and wget,2013-08-28 20:30:00,
2013-08-28 16:35:00,75.0,66.1,27.24,NW,324,5.3,5.3,73,0.00,--,--,0.00,awk and wget,2013-08-28 20:35:00,
2013-08-28 16:40:00,74.2,66.2,27.23,NW,326,2.5,2.9,76,0.00,--,--,0.00,awk and wget,2013-08-28 20:40:00,
2013-08-28 16:45:00,73.7,66.5,27.23,NW,325,4.9,4.9,78,0.00,--,--,0.00,awk and wget,2013-08-28 20:45:00,
2013-08-28 16:50:00,72.9,67.1,27.23,NW,323,7.3,7.3,81,0.00,--,--,0.00,awk and wget,2013-08-28 20:50:00,
2013-08-28 17:00:00,72.2,67.7,27.23,SSE,152,4.0,4.0,85,0.00,--,--,0.00,awk and wget,2013-08-28 21:00:00,
2013-08-28 17:05:00,72.7,68.3,27.23,NNW,327,3.5,3.5,86,0.00,--,--,0.00,awk and wget,2013-08-28 21:05:00,
2013-08-28 17:10:00,72.7,68.2,27.23,SSE,152,5.0,5.0,85,0.00,--,--,0.00,awk and wget,2013-08-28 21:10:00,
2013-08-28 17:15:00,72.3,68.6,27.23,NW,325,3.1,3.1,88,0.00,--,--,0.00,awk and wget,2013-08-28 21:15:00,
2013-08-28 17:20:00,72.4,68.2,27.22,NNW,327,1.9,2.9,86,0.00,--,--,0.00,awk and wget,2013-08-28 21:20:00,
2013-08-28 17:25:00,72.6,68.4,27.23,NNW,337,2.8,2.9,86,0.00,--,--,0.00,awk and wget,2013-08-28 21:25:00,
2013-08-28 17:30:00,72.5,69.0,27.23,NW,324,2.7,2.9,88,0.00,--,--,0.00,awk and wget,2013-08-28 21:30:00,
2013-08-28 17:35:00,72.5,68.8,27.23,NW,325,1.7,2.8,88,0.00,--,--,0.00,awk and wget,2013-08-28 21:35:00,
2013-08-28 17:40:00,72.6,69.6,27.23,NW,325,2.8,2.8,90,0.00,--,--,0.00,awk and wget,2013-08-28 21:40:00,
2013-08-28 17:45:00,72.7,69.6,27.23,NW,325,5.0,5.0,89,0.00,--,--,0.00,awk and wget,2013-08-28 21:45:00,
2013-08-28 17:50:00,73.0,69.3,27.23,NW,324,6.1,6.1,87,0.00,--,--,0.00,awk and wget,2013-08-28 21:50:00,
2013-08-28 18:00:00,74.6,69.5,27.23,NNW,329,2.3,2.8,84,0.00,--,--,0.00,awk and wget,2013-08-28 22:00:00,
2013-08-28 18:05:00,74.0,69.1,27.23,NNW,328,3.0,3.0,84,0.00,--,--,0.00,awk and wget,2013-08-28 22:05:00,
2013-08-28 18:10:00,73.4,69.2,27.23,NNW,338,6.2,6.2,86,0.00,--,--,0.00,awk and wget,2013-08-28 22:10:00,
2013-08-28 18:15:00,72.8,69.4,27.23,NW,326,8.7,8.7,89,0.00,--,--,0.00,awk and wget,2013-08-28 22:15:00,
2013-08-28 18:20:00,72.2,69.5,27.23,NW,324,5.9,5.9,91,0.00,--,--,0.00,awk and wget,2013-08-28 22:20:00,
2013-08-28 18:25:00,72.1,69.7,27.23,NW,324,5.7,5.7,92,0.00,--,--,0.00,awk and wget,2013-08-28 22:25:00,
2013-08-28 18:30:00,71.8,69.4,27.23,SSE,154,3.8,3.8,92,0.00,--,--,0.00,awk and wget,2013-08-28 22:30:00,
2013-08-28 18:35:00,71.4,69.3,27.23,North,359,4.3,4.3,93,0.00,--,--,0.00,awk and wget,2013-08-28 22:35:00,
2013-08-28 18:40:00,71.0,69.3,27.23,NW,325,1.5,2.8,94,0.00,--,--,0.00,awk and wget,2013-08-28 22:40:00,
2013-08-28 18:45:00,71.0,69.5,27.22,NNW,328,2.5,2.8,94,0.00,--,--,0.00,awk and wget,2013-08-28 22:45:00,
2013-08-28 18:50:00,71.0,69.5,27.22,SSE,150,3.0,3.0,95,0.00,--,--,0.00,awk and wget,2013-08-28 22:50:00,
2013-08-28 18:55:00,70.8,69.5,27.23,SE,128,4.9,4.9,95,0.00,--,--,0.00,awk and wget,2013-08-28 22:55:00,
2013-08-28 19:00:00,70.8,69.5,27.22,ESE,114,1.7,2.9,95,0.00,--,--,0.00,awk and wget,2013-08-28 23:00:00,
2013-08-28 19:05:00,70.5,69.2,27.22,NW,325,2.6,2.9,95,0.00,--,--,0.00,awk and wget,2013-08-28 23:05:00,
2013-08-28 19:10:00,70.4,69.3,27.23,NW,325,5.9,5.9,96,0.00,--,--,0.00,awk and wget,2013-08-28 23:10:00,
2013-08-28 19:15:00,70.3,69.3,27.24,NW,324,8.0,8.0,96,0.00,--,--,0.00,awk and wget,2013-08-28 23:15:00,
2013-08-28 19:20:00,70.5,69.6,27.23,NW,325,4.5,4.5,96,0.00,--,--,0.00,awk and wget,2013-08-28 23:20:00,
2013-08-28 19:30:00,70.1,69.1,27.25,NNW,334,3.6,3.6,96,0.00,--,--,0.00,awk and wget,2013-08-28 23:30:00,
2013-08-28 19:35:00,69.5,68.7,27.23,SE,133,5.7,5.7,97,0.00,--,--,0.00,awk and wget,2013-08-28 23:35:00,
2013-08-28 19:40:00,69.3,68.6,27.23,SE,145,6.4,6.4,97,0.00,--,--,0.00,awk and wget,2013-08-28 23:40:00,
2013-08-28 19:45:00,69.1,68.5,27.24,North,9,4.3,4.3,97,0.00,--,--,0.00,awk and wget,2013-08-28 23:45:00,
2013-08-28 19:50:00,69.0,68.5,27.24,SSE,153,2.9,2.9,98,0.00,--,--,0.00,awk and wget,2013-08-28 23:50:00,
2013-08-28 20:00:00,68.9,68.4,27.24,NNW,327,1.0,2.9,98,0.00,--,--,0.00,awk and wget,2013-08-29 00:00:00,
2013-08-28 20:05:00,68.7,68.3,27.24,NW,325,1.7,2.9,98,0.00,--,--,0.00,awk and wget,2013-08-29 00:05:00,
2013-08-28 20:10:00,68.7,68.2,27.24,NW,325,2.5,2.9,98,0.00,--,--,0.00,awk and wget,2013-08-29 00:10:00,
2013-08-28 20:15:00,68.6,68.2,27.25,NNW,345,5.1,5.1,98,0.00,--,--,0.00,awk and wget,2013-08-29 00:15:00,
2013-08-28 20:20:00,68.6,68.2,27.24,North,358,1.4,2.9,98,0.00,--,--,0.00,awk and wget,2013-08-29 00:20:00,
2013-08-28 20:25:00,68.6,68.2,27.24,East,95,1.4,2.9,98,0.00,--,--,0.00,awk and wget,2013-08-29 00:25:00,
2013-08-28 20:30:00,68.6,68.3,27.25,NNW,330,7.6,7.6,99,0.00,--,--,0.00,awk and wget,2013-08-29 00:30:00,
2013-08-28 20:35:00,68.7,68.5,27.25,NNW,330,3.2,3.2,99,0.00,--,--,0.00,awk and wget,2013-08-29 00:35:00,
2013-08-28 20:40:00,68.7,68.4,27.26,SSE,150,1.3,2.9,99,0.00,--,--,0.00,awk and wget,2013-08-29 00:40:00,
2013-08-28 20:45:00,68.6,68.4,27.26,NW,326,2.9,2.9,99,0.00,--,--,0.00,awk and wget,2013-08-29 00:45:00,
2013-08-28 20:50:00,68.6,68.4,27.26,NNW,328,0.9,2.9,99,0.00,--,--,0.00,awk and wget,2013-08-29 00:50:00,
2013-08-28 20:55:00,68.6,68.4,27.26,NW,326,1.2,2.9,99,0.00,--,--,0.00,awk and wget,2013-08-29 00:55:00,
2013-08-28 21:00:00,68.6,68.4,27.26,SSE,155,1.9,2.9,99,0.00,--,--,0.00,awk and wget,2013-08-29 01:00:00,
2013-08-28 21:05:00,68.5,68.3,27.26,NW,326,0.8,2.9,99,0.00,--,--,0.00,awk and wget,2013-08-29 01:05:00,
2013-08-28 21:10:00,68.4,68.3,27.26,NW,326,2.4,2.9,99,0.00,--,--,0.00,awk and wget,2013-08-29 01:10:00,
2013-08-28 21:15:00,68.3,68.2,27.26,NW,326,0.8,2.9,99,0.00,--,--,0.00,awk and wget,2013-08-29 01:15:00,
2013-08-28 21:20:00,68.3,68.1,27.26,NW,326,0.1,2.9,99,0.00,--,--,0.00,awk and wget,2013-08-29 01:20:00,
2013-08-28 21:25:00,68.2,68.1,27.26,NNW,331,0.1,2.8,99,0.00,--,--,0.00,awk and wget,2013-08-29 01:25:00,
2013-08-28 21:30:00,68.0,67.9,27.26,North,8,1.0,2.9,99,0.00,--,--,0.00,awk and wget,2013-08-29 01:30:00,
2013-08-28 21:35:00,68.0,67.9,27.26,North,7,1.1,2.9,99,0.00,--,--,0.00,awk and wget,2013-08-29 01:35:00,
2013-08-28 21:40:00,67.8,67.6,27.26,North,7,0.1,2.9,99,0.00,--,--,0.00,awk and wget,2013-08-29 01:40:00,
2013-08-28 21:45:00,67.5,67.3,27.26,NNW,334,2.5,2.9,99,0.00,--,--,0.00,awk and wget,2013-08-29 01:45:00,
2013-08-28 21:50:00,67.0,66.8,27.26,NNW,331,2.7,2.9,99,0.00,--,--,0.00,awk and wget,2013-08-29 01:50:00,
2013-08-28 22:00:00,67.0,66.8,27.26,NNW,330,0.5,2.9,99,0.00,--,--,0.00,awk and wget,2013-08-29 02:00:00,
2013-08-28 22:05:00,67.2,67.1,27.26,North,355,0.1,2.9,99,0.00,--,--,0.00,awk and wget,2013-08-29 02:05:00,
2013-08-28 22:10:00,67.3,67.2,27.26,North,355,0.7,2.9,99,0.00,--,--,0.00,awk and wget,2013-08-29 02:10:00,
2013-08-28 22:15:00,67.3,67.2,27.26,NNW,329,1.0,2.9,99,0.00,--,--,0.00,awk and wget,2013-08-29 02:15:00,
2013-08-28 22:20:00,67.0,66.9,27.26,SE,146,0.7,2.9,99,0.00,--,--,0.00,awk and wget,2013-08-29 02:20:00,
2013-08-28 22:25:00,67.0,67.0,27.27,East,101,5.8,5.8,99,0.00,--,--,0.00,awk and wget,2013-08-29 02:25:00,
2013-08-28 22:30:00,67.1,67.0,27.26,ESE,111,5.5,5.5,99,0.00,--,--,0.00,awk and wget,2013-08-29 02:30:00,
2013-08-28 22:35:00,66.9,66.9,27.27,ESE,117,0.1,2.9,99,0.00,--,--,0.00,awk and wget,2013-08-29 02:35:00,
2013-08-28 22:40:00,66.6,66.6,27.27,ESE,105,0.4,2.9,99,0.00,--,--,0.00,awk and wget,2013-08-29 02:40:00,
2013-08-28 22:45:00,66.5,66.5,27.27,NNW,330,0.8,2.9,99,0.00,--,--,0.00,awk and wget,2013-08-29 02:45:00,
2013-08-28 22:50:00,66.6,66.6,27.27,North,356,0.2,2.9,99,0.00,--,--,0.00,awk and wget,2013-08-29 02:50:00,
2013-08-28 22:55:00,66.8,66.8,27.27,NNW,336,2.7,2.9,99,0.00,--,--,0.00,awk and wget,2013-08-29 02:55:00,
2013-08-28 23:00:00,66.5,66.5,27.27,NNW,337,2.5,2.9,99,0.00,--,--,0.00,awk and wget,2013-08-29 03:00:00,
2013-08-28 23:05:00,66.5,66.4,27.27,NNW,337,0.8,2.9,99,0.00,--,--,0.00,awk and wget,2013-08-29 03:05:00,
2013-08-28 23:10:00,66.9,66.9,27.27,NNW,337,0.1,2.9,99,0.00,--,--,0.00,awk and wget,2013-08-29 03:10:00,
2013-08-28 23:15:00,66.8,66.8,27.27,NNW,344,2.1,2.9,99,0.00,--,--,0.00,awk and wget,2013-08-29 03:15:00,
2013-08-28 23:20:00,66.9,66.9,27.26,NNW,344,1.0,2.9,99,0.00,--,--,0.00,awk and wget,2013-08-29 03:20:00,
2013-08-28 23:25:00,66.5,66.5,27.26,NNW,342,1.8,2.9,99,0.00,--,--,0.00,awk and wget,2013-08-29 03:25:00,
2013-08-28 23:30:00,66.5,66.4,27.26,NNW,342,0.8,2.9,99,0.00,--,--,0.00,awk and wget,2013-08-29 03:30:00,
2013-08-28 23:35:00,66.4,66.4,27.26,NNW,328,3.2,3.2,99,0.00,--,--,0.00,awk and wget,2013-08-29 03:35:00,
2013-08-28 23:40:00,66.4,66.4,27.26,SSE,151,3.2,3.2,99,0.00,--,--,0.00,awk and wget,2013-08-29 03:40:00,
2013-08-28 23:45:00,66.5,66.4,27.25,ESE,105,3.7,3.7,99,0.00,--,--,0.00,awk and wget,2013-08-29 03:45:00,
2013-08-28 23:50:00,66.7,66.7,27.25,ESE,118,1.8,2.9,99,0.00,--,--,0.00,awk and wget,2013-08-29 03:50:00,
2013-08-28 23:55:00,66.6,66.6,27.26,NE,40,2.5,2.9,99,0.00,--,--,0.00,awk and wget,2013-08-29 03:55:00,